Temperature
21 19 18 18 19 19 19 19 18 19 20 19 18 17 17 18 18 17 17 17 17 17 17 17 17 17 17 17 17 17 17 16 16 16 16 16 16 15 15 15 15 15 15 15
18 19 20 20 20 20 19 18 18 19 19 19 18 17 17 17 17 17 17 17 17 17 17 17 17 17 17 17 17 16 16 16 16 16 15 15 15 15 15 15 15 15 14 14
19 20 21 21 20 20 19 19 18 18 19 18 18 17 17 17 17 17 17 17 17 16 16 16 16 16 16 16 16 16 16 16 16 15 15 15 15 15 15 15 14 14 14 14
19 20 21 20 20 20 19 19 19 19 17 16 18 16 16 16 16 16 16 16 16 16 16 16 16 16 16 16 16 16 15 15 15 15 15 15 15 15 14 14 14 14 14 14
19 20 20 20 20 20 19 20 19 19 17 16 16 16 15 15 15 15 15 16 16 15 15 15 15 15 15 15 15 15 15 15 15 15 14 14 14 14 14 14 14 14 14 13
19 20 20 20 20 20 19 18 18 16 15 16 16 15 15 15 15 15 15 15 15 15 15 15 15 15 15 15 15 14 14 14 14 14 14 14 14 14 14 14 13 13 13 13
18 19 20 20 19 19 18 16 15 16 15 15 16 15 15 15 16 15 15 15 15 15 15 15 14 14 14 14 14 14 14 14 14 14 14 13 13 13 13 13 13 13 13 13
17 17 19 19 19 18 18 16 15 15 15 15 16 15 15 16 16 16 16 15 15 15 15 14 14 14 14 14 14 13 14 13 13 13 13 13 13 13 13 13 13 12 12 12
16 17 19 20 20 19 18 16 16 15 15 15 15 15 16 16 15 15 15 15 15 14 14 14 14 14 14 14 13 13 13 13 13 13 13 13 13 12 12 12 12 12 12 12
17 17 18 19 19 19 18 16 14 15 15 14 15 15 14 15 15 14 14 14 14 14 14 14 14 14 13 13 13 13 13 13 12 12 12 12 12 12 12 12 12 12 12 12
16 16 16 17 17 17 17 17 15 13 14 14 14 14 16 15 15 14 14 14 14 14 14 14 14 13 13 13 13 12 12 12 12 12 12 12 12 12 11 11 11 11 11 11
15 13 14 16 17 17 17 16 15 14 14 13 13 14 15 14 14 15 15 15 14 14 14 13 13 13 13 12 12 12 12 12 12 11 11 11 11 11 11 11 11 11 11 11
15 13 14 15 15 16 17 17 16 14 13 12 13 14 14 14 14 15 14 14 14 14 13 13 13 12 12 12 12 12 12 11 11 11 11 11 11 11 11 10 10 10 10 10
15 13 13 14 14 15 16 16 16 14 13 13 13 14 14 13 13 14 14 14 13 13 13 13 12 12 12 12 11 11 11 11 11 10 10 10 10 10 10 10 10 10 10 10
14 14 14 14 15 16 16 16 16 15 14 13 14 13 13 13 13 13 13 13 13 12 12 12 12 12 11 11 11 11 10 10 10 10 10 10 10 10 10 10 9 9 9 9
12 14 14 15 15 15 15 15 15 15 15 14 14 13 13 13 13 13 13 12 12 12 12 12 11 11 11 11 10 10 10 10 9 9 9 9 9 9 9 9 9 9 9 9
12 12 13 13 14 14 14 15 15 15 15 14 13 13 12 12 12 12 12 12 12 12 11 11 11 11 11 10 10 10 9 9 9 9 9 9 9 8 8 8 8 8 8 8
12 12 11 11 13 13 14 14 14 14 14 13 13 12 12 12 12 12 12 12 11 11 11 11 11 10 10 10 10 9 9 9 8 8 8 8 8 8 8 8 8 8 8 8
12 12 11 11 12 12 13 14 14 14 13 13 12 12 12 12 11 11 12 11 11 11 11 11 10 10 10 10 9 9 9 8 8 8 8 7 7 7 7 7 7 7 7 7
11 11 10 10 12 12 13 14 15 13 12 12 12 12 11 11 9 9 11 11 11 11 10 10 10 10 9 9 9 9 8 8 8 7 7 7 7 7 7 7 7 7 7 7
11 11 10 10 11 11 12 13 14 12 12 12 12 12 12 11 10 11 11 10 10 10 10 9 9 9 9 8 8 8 8 7 7 7 7 7 7 6 6 6 6 6 6 6
11 10 10 9 10 11 12 12 12 11 13 13 12 12 12 11 11 10 10 10 9 9 9 9 9 8 8 8 8 7 7 7 7 7 6 6 6 6 6 6 6 6 6 6
10 10 9 10 10 11 13 13 13 13 12 12 12 11 11 10 10 9 9 9 9 9 8 8 8 8 7 7 7 7 7 7 6 6 6 6 6 6 6 5 5 5 5 5
10 10 9 9 10 11 12 12 12 12 12 12 12 11 11 10 9 9 9 9 8 8 8 8 8 7 7 7 7 6 6 6 6 6 6 6 5 5 5 5 5 5 5 5
9 9 9 9 9 10 11 11 11 12 12 11 11 10 10 10 9 9 8 8 8 8 8 7 7 7 7 6 6 6 6 6 6 5 5 5 5 5 5 5 4 4 4 4
8 9 8 9 10 9 10 11 11 11 11 10 10 9 9 9 9 8 8 8 8 7 7 7 7 6 6 6 6 6 6 5 5 5 5 5 5 5 5 4 4 4 4 4
Wind_Speed
3 5 2 5 6 6 5 4 2 4 3 3 4 3 4 4 4 5 5 5 5 4 2 3 4 5 5 4 4 4 4 3 3 2 2 2 2 2 2 4 6 6 6 6
5 0 4 4 3 5 5 4 1 1 2 3 3 2 3 3 4 6 7 6 5 4 3 3 4 4 4 4 4 4 3 2 2 2 1 2 1 1 1 2 5 6 6 6
4 4 2 3 3 3 3 4 3 3 1 2 2 3 3 2 1 2 4 5 6 7 6 5 4 4 4 4 4 3 2 2 2 2 2 3 3 3 3 3 3 4 5 5
1 2 2 2 1 2 2 4 4 3 2 2 2 2 5 3 1 2 3 4 5 5 5 4 5 4 3 3 3 3 2 2 2 3 4 4 3 2 0 1 1 2 4 4
2 1 2 1 2 2 3 2 3 2 2 1 1 2 5 1 2 4 4 4 5 5 5 5 4 4 3 3 3 3 3 2 2 2 3 3 2 1 0 1 2 2 3 3
2 1 2 2 1 2 2 4 5 4 4 1 4 4 5 4 5 4 4 4 5 6 6 5 4 4 3 3 3 3 3 2 2 2 2 3 3 2 2 2 2 2 2 1
3 3 2 2 2 4 6 6 4 4 3 4 2 3 5 4 3 5 6 5 5 6 6 5 5 4 3 3 2 2 3 2 2 2 2 2 2 2 2 1 1 0 1 1
1 4 3 0 3 3 2 7 5 3 4 4 2 2 4 3 1 3 6 6 5 6 6 6 5 4 3 3 3 3 3 2 2 1 1 1 1 1 1 1 1 1 1 1
3 4 3 2 1 5 3 2 6 5 1 1 3 2 4 1 2 4 5 5 5 5 6 6 4 3 3 3 3 2 2 2 1 1 0 1 1 0 1 0 1 1 1 1
4 2 3 2 3 2 4 5 5 3 2 2 3 3 4 4 3 3 4 4 4 3 4 5 5 4 3 2 2 3 3 2 1 1 1 1 0 1 1 1 0 1 1 1
3 3 2 2 2 3 2 2 3 3 4 4 3 6 4 6 7 6 5 5 5 5 5 5 5 4 4 3 3 2 2 2 2 2 1 2 0 0 0 0 1 2 2 1
3 4 2 5 5 3 4 4 5 3 3 3 3 5 3 2 4 5 5 4 4 5 5 5 5 4 3 3 2 2 1 1 1 1 2 1 1 1 1 1 2 2 2 2
4 5 2 5 5 3 0 2 3 4 3 3 3 5 2 2 1 2 3 3 4 4 4 4 4 3 3 3 2 1 1 1 1 2 2 2 2 1 1 2 2 2 2 2
4 4 5 7 6 4 4 4 2 3 3 4 6 6 4 2 2 2 3 4 3 4 4 4 3 3 2 2 2 2 1 1 1 1 1 1 2 2 2 2 2 2 2 2
4 3 4 6 6 4 5 6 5 5 7 7 8 7 7 6 5 4 4 3 4 3 3 4 3 2 2 1 1 1 0 0 0 0 0 1 2 2 2 2 2 2 2 2
3 2 1 4 4 3 5 6 6 5 5 5 5 6 4 3 2 3 3 3 3 3 3 3 3 2 2 2 1 1 0 0 0 0 1 1 1 2 2 3 2 2 2 1
2 3 1 3 4 3 5 5 5 3 3 4 5 5 2 3 4 4 3 3 3 3 3 3 3 3 3 3 2 2 2 1 0 0 1 2 1 2 2 2 2 2 1 1
5 4 2 1 1 4 7 3 2 2 1 1 3 2 4 4 4 4 4 4 3 2 2 2 2 2 2 1 1 1 1 1 1 0 1 1 1 1 2 2 2 2 1 0
5 6 3 2 2 5 5 4 1 2 2 1 3 3 2 3 3 0 1 2 3 2 2 2 2 1 1 1 1 1 1 0 0 0 1 2 1 1 1 2 2 2 0 0
4 5 4 3 3 6 6 4 2 3 2 3 3 4 3 3 1 3 2 2 2 2 2 1 1 1 1 0 1 2 1 0 1 2 2 1 0 0 1 2 2 2 0 1
2 1 3 4 5 7 5 4 2 2 6 4 3 4 4 3 5 4 3 2 2 3 2 2 2 1 0 0 1 1 1 2 2 1 1 1 1 0 0 1 1 1 1 1
5 4 4 4 4 7 3 2 3 5 2 1 2 3 3 2 3 3 3 2 2 2 2 2 1 1 2 0 1 0 2 2 1 0 0 1 1 1 1 1 1 1 1 1
4 6 5 6 6 4 2 4 3 3 2 1 2 3 3 3 3 3 2 2 2 2 1 1 1 1 2 1 1 1 2 1 0 0 0 0 1 1 1 1 1 0 1 1
3 1 2 2 4 3 2 1 0 1 2 2 3 3 4 3 3 3 2 2 1 1 1 1 1 0 2 2 1 2 2 0 1 1 1 0 0 1 1 1 0 1 1 1
4 1 1 3 4 2 2 1 1 0 2 3 3 3 4 5 4 3 2 2 1 1 1 1 2 2 2 2 2 2 1 1 1 0 0 0 0 0 0 1 0 1 1 1
3 4 5 6 6 4 5 4 2 1 2 3 3 2 2 4 4 2 2 2 2 1 1 1 2 2 2 2 2 2 1 1 2 1 1 0 0 0 0 0 1 2 2 2
Wind_Direction
42 82 155 205 191 176 163 148 176 225 208 141 176 197 215 193 161 164 166 157 157 161 159 128 119 112 104 96 96 95 86 82 87 87 84 75 65 51 39 38 43 50 52 55
47 82 216 173 153 131 130 121 147 259 234 168 177 230 237 195 190 180 173 168 160 139 113 121 115 106 101 103 99 91 92 94 92 102 137 134 133 104 63 31 38 45 50 51
146 241 183 113 111 133 150 167 194 214 310 77 107 332 297 266 180 140 159 161 153 149 146 136 116 104 101 102 111 110 101 84 81 82 87 73 53 37 28 19 20 24 47 53
214 269 111 108 156 141 218 213 190 177 86 265 160 255 275 245 202 176 166 158 161 150 132 126 119 108 110 114 115 110 99 88 88 91 99 107 95 90 291 319 355 13 39 51
270 228 122 146 225 151 207 198 175 186 158 314 295 173 281 219 212 220 197 170 158 148 138 131 126 125 108 98 95 102 99 86 85 91 106 117 106 145 19 14 19 12 21 40
259 262 166 192 236 134 108 53 39 46 78 289 237 179 265 230 217 208 190 174 161 151 135 125 104 94 83 71 75 81 96 87 75 84 94 115 122 125 95 46 23 350 358 21
337 327 324 91 53 21 77 79 34 6 5 257 235 164 245 247 221 185 169 172 170 156 143 133 122 107 89 78 82 85 81 68 73 95 101 127 142 152 162 175 186 299 337 354
166 286 271 215 165 169 140 132 150 200 232 281 338 222 256 263 236 148 150 150 140 147 155 152 148 137 123 88 76 87 89 74 63 98 137 156 146 154 182 188 184 209 237 244
171 250 286 268 196 140 134 164 171 151 219 270 284 289 307 354 73 111 121 128 145 156 163 162 151 135 126 107 91 77 87 72 59 63 85 135 124 155 180 183 201 228 260 266
150 214 276 315 39 35 142 146 92 117 163 254 278 249 233 229 207 159 149 153 160 162 164 160 155 148 132 115 92 74 75 84 56 48 51 64 168 190 183 138 223 266 268 271
120 145 296 359 200 205 110 115 124 137 162 171 248 267 235 211 192 177 177 173 173 172 171 165 160 153 136 115 97 80 69 56 45 30 29 44 17 323 327 192 241 243 246 237
107 121 226 263 275 216 164 172 147 158 233 186 196 268 311 195 174 170 178 186 180 175 170 161 153 141 134 133 129 128 95 68 46 43 35 36 15 27 5 279 262 259 253 241
107 103 50 342 335 357 26 198 160 147 146 184 201 260 336 48 140 169 174 180 172 160 156 148 142 146 156 158 150 139 117 94 31 45 42 21 13 4 316 291 273 253 246 244
108 123 168 205 231 246 264 267 219 147 178 226 227 244 273 266 223 202 174 169 158 152 152 149 154 166 171 163 159 156 141 121 73 51 40 359 324 310 283 286 283 266 253 239
97 164 212 237 251 249 250 256 243 216 205 212 236 230 237 223 209 192 172 160 146 141 146 153 157 161 163 152 154 159 154 101 106 71 6 287 295 306 304 298 298 287 267 258
85 170 244 284 286 287 281 264 247 237 223 220 229 252 243 207 161 153 167 159 150 156 161 162 160 161 177 189 193 179 170 270 115 167 254 282 312 317 317 303 289 285 280 278
142 146 151 267 300 342 284 253 223 230 226 191 216 236 173 145 158 166 176 165 165 183 185 175 180 193 209 217 210 203 210 195 89 344 296 284 292 301 298 310 302 273 274 285
156 139 150 223 2 240 248 271 215 200 266 191 164 171 169 180 175 162 157 153 176 195 181 188 197 217 223 210 192 191 169 166 162 0 325 302 304 307 313 313 316 292 274 271
154 145 143 156 219 272 285 292 240 183 270 284 156 160 157 126 90 53 170 149 160 160 169 180 188 191 196 187 160 109 103 134 153 230 298 300 286 308 327 323 314 302 253 20
89 110 137 164 200 239 250 276 288 116 257 283 169 165 161 114 126 251 222 130 125 116 122 122 128 136 118 251 135 114 153 165 244 246 255 274 288 332 317 311 309 320 201 186
69 77 172 199 223 256 259 291 57 157 250 261 200 179 171 184 205 199 167 130 136 126 109 93 76 63 320 345 118 136 199 241 250 261 281 311 316 298 326 332 311 327 98 96
184 185 199 178 209 251 259 116 175 225 252 225 190 174 160 157 137 137 140 136 131 124 118 108 82 356 335 359 117 201 262 255 256 241 359 332 327 334 7 1 338 355 132 128
194 192 191 195 220 255 228 195 203 171 167 200 177 166 143 133 146 153 160 164 160 160 165 154 140 331 327 317 186 229 273 270 174 175 248 282 326 328 349 35 9 358 134 150
270 178 161 244 272 281 281 297 12 149 157 168 153 145 143 149 154 156 164 174 177 181 195 186 156 243 293 298 279 247 266 228 149 187 263 275 80 341 339 18 27 147 137 166
241 191 196 251 263 301 309 294 277 224 123 121 125 140 152 148 158 168 178 187 191 211 223 205 212 239 262 280 287 283 262 143 137 180 281 343 339 191 287 329 281 193 222 189
228 196 196 230 228 211 248 258 252 209 181 160 143 135 152 155 164 169 179 188 194 212 233 243 251 247 266 284 296 297 265 157 155 180 262 269 282 268 241 67 12 20 44 33
Height
1514 1520 1525 1523 1521 1522 1525 1530 1534 1530 1525 1528 1531 1532 1530 1529 1529 1530 1530 1531 1532 1532 1534 1534 1535 1535 1536 1536 1536 1536 1536 1537 1537 1537 1537 1537 1537 1537 1537 1536 1536 1535 1535 1534
1520 1523 1518 1516 1517 1520 1525 1530 1532 1529 1525 1527 1532 1532 1529 1528 1528 1528 1529 1530 1531 1531 1532 1533 1533 1534 1534 1535 1535 1536 1536 1536 1536 1536 1536 1536 1536 1536 1536 1536 1536 1535 1535 1534
1522 1520 1515 1516 1520 1522 1525 1529 1530 1530 1526 1527 1531 1536 1532 1528 1528 1528 1528 1528 1529 1529 1530 1531 1532 1533 1533 1534 1534 1535 1535 1535 1535 1535 1536 1536 1536 1536 1535 1535 1535 1534 1534 1533
1519 1515 1515 1518 1520 1521 1528 1522 1523 1526 1534 1539 1535 1548 1535 1530 1529 1528 1528 1528 1528 1529 1530 1530 1531 1532 1533 1533 1534 1534 1534 1535 1535 1535 1534 1534 1534 1534 1534 1534 1534 1534 1533 1533
1520 1516 1517 1519 1519 1519 1522 1518 1521 1525 1532 1538 1537 1545 1539 1531 1531 1529 1527 1527 1528 1529 1530 1530 1531 1532 1533 1533 1533 1533 1534 1534 1534 1534 1533 1533 1533 1533 1533 1533 1533 1533 1532 1532
1517 1515 1515 1516 1515 1516 1517 1522 1525 1531 1537 1547 1539 1544 1542 1533 1528 1526 1526 1526 1526 1527 1529 1530 1531 1532 1532 1532 1532 1532 1533 1533 1533 1533 1533 1532 1532 1532 1531 1531 1531 1531 1531 1530
1523 1518 1515 1514 1518 1519 1521 1535 1548 1549 1554 1549 1535 1540 1538 1525 1522 1522 1523 1524 1525 1526 1527 1528 1529 1530 1531 1531 1531 1531 1531 1531 1531 1531 1531 1531 1531 1530 1530 1529 1529 1529 1529 1528
1532 1531 1518 1515 1518 1523 1524 1532 1550 1556 1556 1549 1537 1540 1532 1522 1520 1520 1521 1523 1524 1526 1527 1527 1528 1529 1530 1530 1530 1530 1530 1530 1530 1530 1530 1530 1529 1529 1528 1528 1528 1528 1527 1527
1532 1530 1516 1514 1514 1517 1525 1531 1531 1544 1545 1550 1544 1536 1528 1522 1521 1521 1522 1523 1524 1525 1526 1526 1527 1528 1528 1528 1528 1529 1529 1529 1528 1528 1528 1528 1528 1527 1526 1526 1526 1526 1525 1525
1523 1529 1520 1516 1515 1516 1519 1524 1536 1543 1551 1554 1545 1539 1536 1526 1523 1522 1522 1522 1523 1524 1525 1525 1526 1527 1527 1528 1527 1528 1528 1527 1527 1527 1526 1526 1526 1525 1525 1524 1524 1523 1523 1523
1519 1529 1527 1522 1522 1523 1523 1526 1532 1541 1544 1552 1553 1543 1522 1521 1519 1520 1521 1521 1522 1523 1523 1524 1525 1525 1526 1527 1527 1526 1526 1526 1525 1525 1525 1524 1523 1523 1522 1522 1521 1521 1521 1520
1520 1529 1534 1527 1519 1516 1518 1522 1530 1541 1542 1544 1549 1542 1519 1518 1518 1518 1520 1521 1522 1522 1522 1523 1524 1524 1525 1525 1525 1525 1525 1524 1524 1523 1522 1522 1521 1520 1519 1519 1518 1518 1518 1518
1519 1530 1540 1536 1530 1522 1520 1520 1523 1530 1538 1544 1547 1538 1520 1519 1518 1519 1519 1520 1521 1521 1522 1522 1522 1523 1523 1523 1523 1523 1523 1522 1522 1521 1520 1519 1518 1518 1517 1516 1515 1515 1515 1514
1516 1528 1536 1539 1533 1526 1523 1520 1520 1527 1538 1539 1535 1529 1522 1520 1519 1518 1519 1519 1519 1520 1520 1520 1521 1521 1521 1521 1521 1521 1521 1520 1519 1518 1517 1516 1515 1514 1514 1513 1512 1512 1511 1511
1517 1527 1526 1524 1521 1520 1520 1519 1517 1521 1524 1530 1525 1523 1519 1518 1517 1517 1518 1518 1519 1519 1519 1519 1519 1519 1520 1519 1519 1519 1518 1518 1517 1516 1514 1513 1512 1512 1511 1510 1509 1509 1508 1508
1519 1524 1523 1523 1518 1518 1518 1516 1515 1516 1516 1518 1518 1519 1514 1514 1515 1516 1517 1517 1517 1518 1518 1518 1518 1518 1518 1517 1517 1516 1515 1515 1514 1513 1511 1510 1509 1509 1508 1507 1506 1505 1505 1505
1521 1525 1528 1530 1522 1520 1524 1515 1513 1513 1511 1514 1518 1516 1513 1513 1514 1514 1515 1515 1515 1516 1516 1516 1516 1516 1515 1515 1514 1513 1513 1512 1511 1510 1508 1507 1506 1505 1504 1504 1503 1502 1502 1501
1518 1524 1530 1532 1528 1532 1520 1509 1508 1510 1510 1509 1509 1510 1510 1511 1512 1513 1513 1514 1514 1514 1514 1514 1514 1514 1513 1513 1512 1511 1510 1509 1508 1507 1505 1504 1503 1502 1501 1500 1499 1499 1498 1498
1511 1520 1529 1534 1533 1527 1515 1509 1508 1510 1512 1508 1508 1509 1510 1510 1511 1513 1513 1513 1513 1512 1512 1512 1512 1512 1511 1510 1509 1508 1507 1506 1505 1504 1502 1501 1499 1499 1498 1497 1496 1495 1495 1494
1513 1516 1527 1532 1532 1531 1516 1507 1504 1508 1513 1508 1507 1507 1508 1508 1513 1512 1511 1511 1511 1511 1511 1511 1510 1509 1508 1508 1507 1506 1504 1503 1501 1501 1499 1498 1497 1496 1495 1494 1493 1492 1492 1491
1519 1522 1526 1529 1529 1521 1510 1505 1505 1516 1514 1506 1505 1505 1505 1506 1507 1508 1508 1509 1509 1509 1509 1509 1508 1507 1506 1505 1504 1503 1501 1500 1499 1498 1497 1496 1495 1494 1493 1492 1491 1490 1489 1488
1518 1523 1525 1527 1528 1521 1505 1504 1508 1508 1504 1504 1503 1503 1503 1503 1504 1505 1506 1507 1507 1507 1507 1507 1506 1505 1504 1503 1502 1500 1499 1498 1497 1496 1495 1494 1493 1492 1491 1489 1488 1487 1486 1485
1513 1513 1514 1516 1514 1505 1502 1502 1502 1502 1502 1502 1502 1502 1502 1502 1503 1503 1504 1505 1505 1505 1505 1505 1504 1503 1502 1501 1500 1499 1498 1496 1495 1494 1492 1491 1491 1490 1488 1487 1485 1485 1484 1483
1509 1507 1509 1510 1505 1502 1501 1501 1501 1501 1500 1500 1500 1500 1501 1501 1501 1502 1503 1503 1503 1504 1503 1502 1502 1500 1499 1499 1498 1497 1495 1494 1492 1491 1490 1489 1488 1487 1486 1485 1484 1483 1482 1481
1507 1506 1507 1507 1504 1502 1500 1500 1500 1500 1499 1499 1499 1499 1500 1500 1500 1501 1501 1501 1501 1501 1501 1500 1499 1498 1497 1496 1495 1494 1493 1492 1490 1489 1488 1486 1486 1485 1484 1483 1482 1481 1480 1479
1502 1503 1505 1503 1500 1500 1499 1498 1498 1498 1497 1497 1497 1498 1498 1499 1499 1499 1499 1499 1499 1499 1499 1498 1497 1496 1495 1494 1493 1492 1491 1490 1488 1486 1486 1484 1484 1483 1482 1481 1480 1480 1479 1478